• Join FlightAware (Why Join?)
  • Login
  • US Flag 
12:13PM EST


 

Airport Tracker/Info


-or-


 

Live Flight TrackerFlight Track Log ✈ OPT338 ✈ 16-Jun-2014 ✈ KOXC - KPWM

Flight Track Log - Related Links

Times and Time Zones

All times are in EDT time to prevent confusion due to time zone crossing. See the OPT338 flight status page for this flight to view local times or setup timezone preferences in your user account.

Time Position Orientation Groundspeed Altitude Reporting Facility
EDT Latitude Longitude Course Direction KTS MPH feet Rate Location/Type
11:02AM 41.5034 -73.1366 10° North 176 203 2,800  Level FlightAware ADS-B (KSNC)
11:02AM 41.5196 -73.1314 14° North 210 242 3,600 2,735 Climbing FlightAware ADS-B (KSNC)
11:03AM 41.5726 -73.1208 North 242 278 5,900 2,261 Climbing FlightAware ADS-B (KSNC)
11:04AM 41.5945 -73.1168 North 246 283 6,200 2,348 Climbing FlightAware ADS-B (KSNC)
11:04AM 41.6244 -73.1099 10° North 251 289 7,700 3,304 Climbing FlightAware ADS-B (KSNC)
11:05AM 41.6739 -73.0976 10° North 259 298 10,000 3,181 Climbing FlightAware ADS-B (KSNC)
11:05AM 41.7237 -73.0861 10° North 263 303 12,100 3,071 Climbing FlightAware ADS-B (KSNC)
11:06AM 41.7730 -73.0659 31° Northeast 274 315 14,300 3,000 Climbing FlightAware ADS-B (KSNC)
11:07AM 41.8100 -73.0379 29° Northeast 280 322 15,900 2,308 Climbing FlightAware ADS-B (KSNC)
11:07AM 41.8478 -73.0100 29° Northeast 315 362 16,800 871 Climbing FlightAware ADS-B (KSNC)
11:08AM 41.8889 -72.9794 29° Northeast 343 395 16,800  Level FlightAware ADS-B (KSNC)
11:09AM 41.9562 -72.9289 29° Northeast 362 417 16,800  Level FlightAware ADS-B (LDSP / SPU)
11:10AM 42.0720 -72.8420 29° Northeast 373 429 16,800  Level FlightAware ADS-B (LDSP / SPU)
11:11AM 42.1452 -72.7869 29° Northeast 376 433 16,800  Level FlightAware ADS-B (KSNC)
11:15AM 42.4985 -72.4689 45° Northeast 388 447 16,800  Level FlightAware ADS-B (SBBR / BSB)
11:16AM 42.5872 -72.3496 45° Northeast 386 444 16,800  Level FlightAware ADS-B (SBBR / BSB)
11:17AM 42.6792 -72.2252 45° Northeast 385 443 16,800  Level FlightAware ADS-B (KASH)
11:17AM 42.7162 -72.1751 45° Northeast 383 441 16,800  Level FlightAware ADS-B (KASH)
11:18AM 42.7742 -72.0963 45° Northeast 384 442 16,800 -467 Level FlightAware ADS-B (KASH)
11:19AM 42.8303 -72.0197 45° Northeast 387 445 16,100 -811 Descending FlightAware ADS-B (KASH)
11:19AM 42.8685 -71.9676 45° Northeast 386 444 15,800 -240 Descending FlightAware ADS-B (KASH)
11:20AM 42.9250 -71.8902 46° Northeast 378 435 15,800  Level FlightAware ADS-B (KASH)
11:21AM 42.9629 -71.8382 46° Northeast 378 435 15,800  Level FlightAware ADS-B (KASH)
11:21AM 43.0007 -71.7861 46° Northeast 377 434 15,800  Level FlightAware ADS-B (KASH)
11:22AM 43.0380 -71.7348 46° Northeast 377 434 15,800  Level FlightAware ADS-B (KASH)
11:22AM 43.0766 -71.6815 46° Northeast 376 433 15,800  Level FlightAware ADS-B (KASH)
11:23AM 43.1141 -71.6298 46° Northeast 375 432 15,800  Level FlightAware ADS-B (KASH)
11:23AM 43.1331 -71.6034 46° Northeast 373 429 15,800  Level FlightAware ADS-B (KASH)
11:24AM 43.1716 -71.5500 46° Northeast 372 428 15,800  Level FlightAware ADS-B (KASH)
11:24AM 43.2083 -71.4990 45° Northeast 378 435 15,800  Level FlightAware ADS-B
11:25AM 43.2488 -71.4426 46° Northeast 378 435 15,800 -405 Level FlightAware ADS-B
11:25AM 43.3003 -71.3708 46° Northeast 376 433 15,300 -1,000 Descending FlightAware ADS-B (KASH)
11:25AM 43.3100 -71.3574 47° Northeast 374 430 15,000 -2,045 Descending FlightAware ADS-B (KASH)
11:26AM 43.3533 -71.2967 46° Northeast 376 433 13,800 -1,909 Descending FlightAware ADS-B
11:27AM 43.3896 -71.2458 46° Northeast 372 428 12,900 -1,938 Descending FlightAware ADS-B
11:27AM 43.4316 -71.1868 46° Northeast 368 423 11,700 -1,875 Descending FlightAware ADS-B (KASH)
11:28AM 43.4633 -71.1354 60° Northeast 361 415 10,900 -964 Descending FlightAware ADS-B (KASH)
11:28AM 43.4806 -71.0770 71° East 353 406 10,800 -158 Descending FlightAware ADS-B (KASH)
11:29AM 43.5108 -70.9722 68° East 356 410 10,700 -759 Descending FlightAware ADS-B (KASH)
11:29AM 43.5296 -70.9102 69° East 331 381 9,800 -1,900 Descending FlightAware ADS-B (KASH)
11:30AM 43.5455 -70.8562 70° East 287 330 8,800 -2,000 Descending FlightAware ADS-B (KASH)
11:30AM 43.5598 -70.8069 70° East 279 321 7,800 -2,040 Descending FlightAware ADS-B (KASH)
11:31AM 43.5694 -70.7737 70° East 274 315 7,100 -1,733 Descending FlightAware ADS-B (KASH)
11:32AM 43.6000 -70.6731 70° East 264 304 5,200 -1,836 Descending Boston Center
11:33AM 43.6247 -70.5728 71° East 260 299 3,000 -1,645 Descending Boston Center
11:34AM 43.6442 -70.4831 73° East 249 287 1,800 -726 Descending Boston Center
11:35AM 43.6533 -70.4217 78° East 167 192 1,500 -532 Descending Boston Center
11:36AM 43.6478 -70.3656 98° East 139 160 700 -645 Descending Boston Center
11:37AM 43.6453 -70.3250 95° East 131 151 200 -492 Descending Boston Center
11:39AM 43.6456 -70.3086 101° East  Level Estimated
11:46AM 43.6456 -70.3086 101° East  Level Estimated